MST,Max TemperatureF,Mean TemperatureF,Min TemperatureF,Max Dew PointF,MeanDew PointF,Min DewpointF,Max Humidity, Mean Humidity, Min Humidity, Max Sea Level PressureIn, Mean Sea Level PressureIn, Min Sea Level PressureIn, Max VisibilityMiles, Mean VisibilityMiles, Min VisibilityMiles, Max Wind SpeedMPH, Mean Wind SpeedMPH, Max Gust SpeedMPH,PrecipitationIn, CloudCover, Events, WindDirDegrees
2012-10-1,98,81,64,39,35,28,40,21,10,29.97,29.90,29.84,10,10,8,7,1,,0.00,0,,10
2012-10-2,100,82,64,41,34,30,32,20,10,29.94,29.88,29.82,10,10,9,6,0,,0.00,0,,288
2012-10-3,100,82,64,41,37,32,37,21,10,29.98,29.93,29.86,10,10,10,9,1,16,0.00,0,,261
2012-10-4,98,81,64,43,39,36,37,24,12,30.08,30.00,29.95,10,10,10,17,1,24,0.00,0,,225
2012-10-5,93,78,62,43,38,32,42,26,14,30.05,29.97,29.89,10,10,9,5,0,,0.00,0,,155
2012-10-6,91,76,62,45,39,34,40,26,15,29.95,29.89,29.82,10,10,10,8,0,,0.00,0,,237
2012-10-7,91,78,64,46,40,37,40,28,16,29.93,29.88,29.83,10,10,10,0,0,,0.00,0,,-1
2012-10-8,93,78,62,46,41,37,42,28,15,29.98,29.91,29.85,10,10,10,10,0,,0.00,0,,217
2012-10-9,89,76,64,52,44,39,49,32,21,29.99,29.92,29.85,10,10,8,7,0,,0.00,0,,165
2012-10-10,91,78,64,48,44,37,56,33,17,30.00,29.91,29.82,10,10,10,12,1,20,0.00,0,,149
2012-10-11,87,78,68,55,48,34,60,38,23,29.92,29.87,29.81,10,10,10,18,3,25,0.00,2,,196
2012-10-12,73,66,60,48,41,36,55,38,27,30.10,30.03,29.91,10,10,9,12,3,,0.00,2,,244
2012-10-13,59,55,51,36,35,34,54,46,39,30.17,30.12,30.09,10,10,10,0,0,,0.00,0,,-1
2012-10-14,,,,,,,,,,,,,,,,,,,,,,
2012-10-15,93,80,64,36,30,27,26,15,11,29.94,29.88,29.85,10,10,9,6,0,,0.00,0,,320
2012-10-16,89,72,55,39,34,27,36,25,16,29.92,29.85,29.77,10,10,9,5,0,,0.00,0,,275
2012-10-17,91,75,59,46,36,30,34,26,15,29.94,29.87,29.82,10,10,10,8,0,,0.00,0,,276
2012-10-18,87,74,60,63,50,32,68,43,28,30.07,29.99,29.94,10,10,6,12,1,,0.00,0,,290
2012-10-19,89,73,57,54,43,34,67,36,15,29.98,29.90,29.82,10,10,10,7,1,,0.00,0,,283
2012-10-20,89,74,60,43,37,34,39,26,16,29.89,29.82,29.76,10,10,10,10,0,16,0.00,1,,266
2012-10-21,87,74,60,48,44,39,52,36,22,29.88,29.84,29.80,10,10,8,22,3,26,0.00,0,,200
2012-10-22,84,70,57,54,48,43,67,45,30,29.96,29.90,29.85,10,10,9,8,0,,0.00,0,,177
2012-10-23,82,70,57,52,46,43,59,41,28,29.93,29.87,29.82,10,10,4,5,0,,0.00,0,,285
2012-10-24,80,68,55,43,34,21,51,30,12,29.97,29.90,29.85,10,10,8,14,2,20,0.00,0,,282
2012-10-25,80,63,46,30,22,14,43,22,10,30.05,29.98,29.92,10,10,10,10,1,,0.00,0,,304
2012-10-26,80,63,46,25,20,12,32,17,11,30.07,29.98,29.92,10,10,9,10,2,,0.00,0,,340
2012-10-27,84,68,51,32,26,16,31,21,13,30.00,29.93,29.87,10,10,10,18,7,26,0.00,0,,44
2012-10-28,87,68,48,34,29,25,40,24,14,30.02,29.98,29.93,10,10,10,6,0,,0.00,0,,180
2012-10-29,87,70,53,34,30,25,36,23,13,30.12,30.05,30.01,10,10,10,7,0,,0.00,0,,343
2012-10-30,86,68,51,36,29,23,38,25,14,30.09,30.02,29.95,10,10,10,5,0,,0.00,0,,109
2012-10-31,86,68,51,34,27,21,35,24,12,30.05,29.99,29.93,10,10,8,6,0,,0.00,0,,7